• In Romania
  • List of Countries
  • For 7 days
  • Water Temperature
  • Satellite Maps
  • Weather Map
  • Weather Widgets
  • user-avatar
    Login

    Hourly Weather Namyur

    Today, 18 October, Wednesday

    Time Temperature Precipitation Wind Pressure Humidity
    00:00 +14°C° 0 mm 2 mps 751 mmHg 91%
    01:00 +13°C° 0 mm 2 mps 751 mmHg 90%
    02:00 +13°C° 0 mm 2 mps 750 mmHg 90%
    03:00 +13°C° 0 mm 2 mps 750 mmHg 90%
    04:00 +12°C° 0 mm 2 mps 750 mmHg 90%
    05:00 +12°C° 0 mm 2 mps 750 mmHg 89%
    06:00 +10°C° 0 mm 2 mps 750 mmHg 86%
    07:00 +13°C° 0 mm 2 mps 750 mmHg 81%
    08:00 +13°C° 0 mm 3 mps 750 mmHg 76%
    09:00 +16°C° 0 mm 3 mps 749 mmHg 70%
    10:00 +17°C° 0 mm 3 mps 749 mmHg 68%
    11:00 +19°C° 0 mm 3 mps 749 mmHg 66%
    12:00 +20°C° 0 mm 3 mps 749 mmHg 64%
    13:00 +20°C° 0 mm 3 mps 749 mmHg 66%
    14:00 +20°C° 0 mm 2 mps 749 mmHg 68%
    15:00 +20°C° 0 mm 2 mps 748 mmHg 70%
    16:00 +19°C° 0 mm 2 mps 748 mmHg 77%
    17:00 +17°C° 0 mm 2 mps 749 mmHg 83%
    18:00 +15°C° 0 mm 2 mps 749 mmHg 89%
    19:00 +15°C° 0 mm 2 mps 749 mmHg 89%
    20:00 +15°C° 0 mm 2 mps 749 mmHg 89%
    21:00 +14°C° 0 mm 2 mps 749 mmHg 89%
    22:00 +14°C° 0 mm 2 mps 749 mmHg 89%
    23:00 +14°C° 0 mm 2 mps 749 mmHg 89%

    Tomorrow, 19 October, Thursday

    Time Temperature Precipitation Wind Pressure Humidity
    00:00 +13°C° 0 mm 2 mps 749 mmHg 89%
    01:00 +13°C° 0 mm 2 mps 748 mmHg 89%
    02:00 +13°C° 0 mm 2 mps 748 mmHg 89%
    03:00 +13°C° 0 mm 2 mps 748 mmHg 90%
    04:00 +13°C° 0 mm 2 mps 748 mmHg 90%
    05:00 +11°C° 0 mm 3 mps 748 mmHg 90%
    06:00 +11°C° 0 mm 3 mps 748 mmHg 90%
    07:00 +13°C° 0 mm 3 mps 748 mmHg 85%
    08:00 +14°C° 0 mm 4 mps 748 mmHg 80%
    09:00 +17°C° 0 mm 4 mps 748 mmHg 74%
    10:00 +17°C° 0 mm 5 mps 748 mmHg 71%
    11:00 +20°C° 0 mm 5 mps 747 mmHg 68%
    12:00 +21°C° 0 mm 5 mps 747 mmHg 64%
    13:00 +21°C° 0 mm 5 mps 747 mmHg 65%
    14:00 +21°C° 0 mm 5 mps 747 mmHg 67%
    15:00 +21°C° 0 mm 5 mps 747 mmHg 68%
    16:00 +20°C° 0 mm 4 mps 747 mmHg 71%
    17:00 +18°C° 0 mm 4 mps 747 mmHg 75%
    18:00 +17°C° 0 mm 4 mps 747 mmHg 79%
    19:00 +17°C° 0 mm 3 mps 747 mmHg 81%
    20:00 +16°C° 0 mm 3 mps 747 mmHg 82%
    21:00 +14°C° 0 mm 3 mps 747 mmHg 84%
    22:00 +14°C° 0 mm 3 mps 747 mmHg 81%
    23:00 +14°C° 0 mm 3 mps 747 mmHg 78%

    Day after tomorrow, 20 October, Friday

    Time Temperature Precipitation Wind Pressure Humidity
    00:00 +14°C° 0 mm 4 mps 747 mmHg 75%
    01:00 +14°C° 0.2 mm 4 mps 747 mmHg 74%
    02:00 +14°C° 0.2 mm 4 mps 747 mmHg 73%
    03:00 +14°C° 0.2 mm 4 mps 747 mmHg 71%
    04:00 +14°C° 0.5 mm 4 mps 748 mmHg 74%
    05:00 +14°C° 0.5 mm 4 mps 748 mmHg 77%
    06:00 +14°C° 0.5 mm 4 mps 748 mmHg 79%
    07:00 +14°C° 0.5 mm 4 mps 748 mmHg 82%
    08:00 +14°C° 0.5 mm 5 mps 748 mmHg 85%
    09:00 +14°C° 0.5 mm 5 mps 749 mmHg 88%
    10:00 +15°C° 0.7 mm 5 mps 749 mmHg 87%
    11:00 +15°C° 0.7 mm 5 mps 749 mmHg 86%
    12:00 +15°C° 0.7 mm 5 mps 749 mmHg 85%
    13:00 +15°C° 0.2 mm 5 mps 749 mmHg 82%
    14:00 +15°C° 0.2 mm 5 mps 749 mmHg 79%
    15:00 +17°C° 0.2 mm 4 mps 749 mmHg 76%
    16:00 +14°C° 0 mm 4 mps 750 mmHg 78%
    17:00 +13°C° 0 mm 4 mps 750 mmHg 80%
    18:00 +12°C° 0 mm 3 mps 750 mmHg 82%
    19:00 +12°C° 0 mm 3 mps 750 mmHg 83%
    20:00 +11°C° 0 mm 3 mps 751 mmHg 85%
    21:00 +10°C° 0 mm 3 mps 751 mmHg 86%
    22:00 +10°C° 0 mm 3 mps 751 mmHg 85%
    23:00 +10°C° 0 mm 3 mps 750 mmHg 84%

    21 October, Saturday

    Time Temperature Precipitation Wind Pressure Humidity
    00:00 +10°C° 0 mm 4 mps 750 mmHg 83%
    01:00 +11°C° 0 mm 4 mps 750 mmHg 83%
    02:00 +10°C° 0 mm 5 mps 749 mmHg 83%
    03:00 +12°C° 0 mm 5 mps 749 mmHg 82%
    04:00 +11°C° 0.1 mm 6 mps 749 mmHg 84%
    05:00 +11°C° 0.1 mm 6 mps 748 mmHg 86%
    06:00 +11°C° 0.1 mm 7 mps 748 mmHg 88%
    07:00 +11°C° 0.5 mm 6 mps 748 mmHg 89%
    08:00 +13°C° 0.5 mm 6 mps 748 mmHg 90%
    09:00 +13°C° 0.5 mm 6 mps 748 mmHg 91%
    10:00 +14°C° 0.1 mm 6 mps 749 mmHg 88%
    11:00 +14°C° 0.1 mm 6 mps 749 mmHg 84%
    12:00 +14°C° 0.1 mm 6 mps 749 mmHg 81%
    13:00 +14°C° 0 mm 6 mps 749 mmHg 76%
    14:00 +14°C° 0 mm 6 mps 749 mmHg 72%
    15:00 +14°C° 0 mm 6 mps 749 mmHg 67%
    16:00 +13°C° 0 mm 6 mps 749 mmHg 69%
    17:00 +12°C° 0 mm 5 mps 749 mmHg 70%
    18:00 +10°C° 0 mm 5 mps 749 mmHg 72%
    19:00 +10°C° 0 mm 5 mps 749 mmHg 71%
    20:00 +10°C° 0 mm 6 mps 749 mmHg 71%
    21:00 +9°C° 0 mm 6 mps 749 mmHg 71%
    22:00 +9°C° 0 mm 6 mps 749 mmHg 72%
    23:00 +9°C° 0 mm 7 mps 749 mmHg 74%

    22 October, Sunday

    Time Temperature Precipitation Wind Pressure Humidity
    00:00 +9°C° 0 mm 7 mps 749 mmHg 75%
    01:00 +8°C° 0.2 mm 7 mps 749 mmHg 78%
    02:00 +8°C° 0.2 mm 7 mps 749 mmHg 80%
    03:00 +8°C° 0.2 mm 7 mps 749 mmHg 83%
    04:00 +8°C° 0.2 mm 7 mps 749 mmHg 84%
    05:00 +8°C° 0.2 mm 7 mps 749 mmHg 85%
    06:00 +7°C° 0.2 mm 6 mps 749 mmHg 86%
    07:00 +8°C° 0.1 mm 7 mps 750 mmHg 84%
    08:00 +8°C° 0.1 mm 7 mps 750 mmHg 82%
    09:00 +9°C° 0.1 mm 7 mps 750 mmHg 80%
    10:00 +9°C° 0.1 mm 7 mps 750 mmHg 80%
    11:00 +9°C° 0.1 mm 7 mps 751 mmHg 79%
    12:00 +9°C° 0.1 mm 7 mps 751 mmHg 78%
    13:00 +10°C° 0.2 mm 6 mps 751 mmHg 78%
    14:00 +10°C° 0.2 mm 6 mps 751 mmHg 78%
    15:00 +10°C° 0.2 mm 5 mps 751 mmHg 78%
    16:00 +9°C° 0.3 mm 5 mps 752 mmHg 81%
    17:00 +9°C° 0.3 mm 5 mps 752 mmHg 84%
    18:00 +8°C° 0.3 mm 4 mps 752 mmHg 86%
    19:00 +8°C° 0.4 mm 4 mps 753 mmHg 88%
    20:00 +8°C° 0.4 mm 5 mps 753 mmHg 90%
    21:00 +8°C° 0.4 mm 5 mps 753 mmHg 91%
    22:00 +8°C° 0.3 mm 5 mps 753 mmHg 91%
    23:00 +8°C° 0.3 mm 5 mps 753 mmHg 91%

    23 October, Monday

    Time Temperature Precipitation Wind Pressure Humidity
    00:00 +8°C° 0.3 mm 4 mps 753 mmHg 90%
    01:00 +8°C° 0.2 mm 4 mps 753 mmHg 91%
    02:00 +8°C° 0.2 mm 4 mps 753 mmHg 91%
    03:00 +8°C° 0.2 mm 4 mps 754 mmHg 92%
    04:00 +8°C° 0 mm 4 mps 754 mmHg 92%
    05:00 +8°C° 0 mm 4 mps 754 mmHg 93%
    06:00 +8°C° 0 mm 4 mps 754 mmHg 93%
    07:00 +8°C° 0 mm 4 mps 755 mmHg 92%
    08:00 +10°C° 0 mm 4 mps 755 mmHg 91%
    09:00 +11°C° 0 mm 4 mps 755 mmHg 89%
    10:00 +11°C° 0.1 mm 4 mps 755 mmHg 88%
    11:00 +12°C° 0.1 mm 4 mps 755 mmHg 87%
    12:00 +12°C° 0.1 mm 4 mps 755 mmHg 86%
    13:00 +12°C° 0.2 mm 4 mps 755 mmHg 87%
    14:00 +12°C° 0.2 mm 4 mps 755 mmHg 89%
    15:00 +12°C° 0.2 mm 4 mps 755 mmHg 90%
    16:00 +12°C° 0.2 mm 3 mps 755 mmHg 92%
    17:00 +12°C° 0.2 mm 3 mps 755 mmHg 93%
    18:00 +12°C° 0.2 mm 3 mps 756 mmHg 95%
    19:00 +12°C° 0.2 mm 3 mps 756 mmHg 95%
    20:00 +12°C° 0.2 mm 3 mps 756 mmHg 95%
    21:00 +12°C° 0.2 mm 3 mps 756 mmHg 96%
    22:00 +11°C° 0.1 mm 3 mps 756 mmHg 96%
    23:00 +11°C° 0.1 mm 3 mps 756 mmHg 96%
    Show more